Location: DARK SKY Beskydy - Park tmavé oblohy, www.darkskybeskydy.cz
(49.4926°N, 18.5016°E)
Time: 11:28:53
(UTC+02:00)

BlueWalker 3 - Pass Details

Date: 25 June 2024
Orbit: 480 x 491 km, 53.2° (Epoch: 23 July)

Event Time Altitude Azimuth Distance (km) Brightness Sun altitude
Rises 02:08:57 0° 292° (WNW) 2,538 5.6 -15.0°
Reaches altitude 10° 02:11:15 10° 282° (WNW) 1,656 4.5 -14.8°
Maximum altitude 02:14:36 32° 219° (SW) 852 2.6 -14.7°
Enters shadow 02:15:22 29° 193° (SSW) 913 2.6 -14.6°
